Tracking 31027 objects as of 19-Jul-2025
HD Live streaming from Space Station
objects crossing your sky now

STARLINK-1096

Track STARLINK-1096 now!
10-day predictions
STARLINK-1096 is classified as:


NORAD ID: 44942
Int'l Code: 2020-001AE
Perigee: 373.6 km
Apogee: 378.3 km
Inclination: 53.0 °
Period: 91.9 minutes
Semi major axis: 6746 km
RCS: Unknown
Launch date: January 7, 2020
Source: United States (US)
Launch site: AIR FORCE EASTERN TEST RANGE (AFETR)
Your satellite tracking list
GEOTAIL
Track 1 satellite(s)




NASA's NSSDC Master Catalog

Two Line Element Set (TLE):
1 44942U 20001AE  25199.05117661  .00048386  00000-0  45708-3 0  9995
2 44942  52.9966 111.3181 0003540  76.0690 284.0718 15.66543746307397
Source of the keplerian elements: AFSPC